QPF
0.00 0.00 0.01 0.01 0.00 0.00 0.00 0.00 0.00 0.00 0.00 0.01 0.02 0.03 0.02 0.01 0.01 0.00 0.00 0.00 0.00 0.00 0.01 0.02 0.03 0.03 0.04 0.04 0.02 0.01 0.00 0.00 0.00 0.00 0.00 0.00 0.00 0.00 0.00 0.00 0.00 0.00 0.00
0.00 0.00 0.01 0.01 0.00 0.00 0.00 0.00 0.00 0.00 0.00 0.01 0.02 0.02 0.02 0.02 0.01 0.00 0.00 0.00 0.00 0.00 0.01 0.02 0.03 0.03 0.04 0.03 0.01 0.00 0.00 0.00 0.00 0.00 0.00 0.00 0.00 0.00 0.00 0.00 0.00 0.00 0.00
0.00 0.00 0.01 0.01 0.00 0.00 0.00 0.00 0.00 0.00 0.00 0.01 0.01 0.02 0.02 0.01 0.00 0.00 0.00 0.00 0.00 0.00 0.00 0.01 0.01 0.01 0.01 0.00 0.00 0.00 0.00 0.00 0.00 0.00 0.00 0.00 0.00 0.00 0.00 0.00 0.00 0.00 0.00
0.00 0.00 0.00 0.00 0.00 0.00 0.00 0.00 0.00 0.00 0.00 0.00 0.01 0.02 0.01 0.00 0.00 0.00 0.00 0.00 0.00 0.00 0.00 0.00 0.00 0.00 0.00 0.00 0.00 0.00 0.00 0.00 0.00 0.00 0.00 0.00 0.00 0.00 0.00 0.00 0.00 0.01 0.00
0.00 0.00 0.00 0.00 0.00 0.00 0.00 0.00 0.00 0.00 0.00 0.00 0.01 0.01 0.00 0.00 0.00 0.00 0.00 0.00 0.00 0.00 0.00 0.00 0.00 0.00 0.00 0.00 0.00 0.00 0.00 0.00 0.00 0.00 0.00 0.00 0.00 0.00 0.00 0.00 0.00 0.01 0.01
0.00 0.00 0.00 0.01 0.00 0.00 0.00 0.00 0.00 0.00 0.00 0.00 0.00 0.00 0.00 0.00 0.01 0.01 0.00 0.00 0.00 0.00 0.00 0.00 0.00 0.00 0.00 0.00 0.00 0.00 0.00 0.00 0.00 0.00 0.00 0.00 0.00 0.00 0.00 0.00 0.00 0.00 0.00
0.00 0.00 0.00 0.01 0.01 0.00 0.00 0.00 0.00 0.00 0.00 0.00 0.00 0.00 0.00 0.00 0.02 0.02 0.01 0.00 0.00 0.00 0.00 0.00 0.00 0.00 0.00 0.00 0.00 0.00 0.00 0.00 0.00 0.00 0.00 0.00 0.00 0.00 0.00 0.00 0.00 0.00 0.00
0.00 0.00 0.01 0.01 0.01 0.01 0.00 0.00 0.00 0.00 0.00 0.00 0.00 0.00 0.00 0.00 0.01 0.02 0.02 0.00 0.00 0.00 0.00 0.00 0.00 0.00 0.00 0.00 0.00 0.00 0.00 0.00 0.00 0.00 0.00 0.00 0.00 0.00 0.00 0.01 0.01 0.01 0.01
0.00 0.00 0.00 0.01 0.01 0.01 0.01 0.00 0.00 0.00 0.00 0.00 0.00 0.00 0.00 0.00 0.01 0.02 0.01 0.00 0.00 0.00 0.00 0.00 0.00 0.00 0.00 0.00 0.00 0.00 0.00 0.00 0.00 0.00 0.00 0.00 0.00 0.00 0.01 0.02 0.04 0.04 0.05
0.00 0.00 0.00 0.01 0.01 0.01 0.01 0.01 0.00 0.00 0.00 0.00 0.00 0.00 0.00 0.00 0.00 0.01 0.01 0.00 0.00 0.00 0.01 0.01 0.01 0.00 0.00 0.00 0.00 0.00 0.00 0.00 0.00 0.00 0.00 0.00 0.00 0.00 0.01 0.02 0.04 0.05 0.07
0.00 0.00 0.00 0.00 0.01 0.01 0.01 0.01 0.00 0.00 0.00 0.00 0.00 0.00 0.00 0.00 0.00 0.00 0.00 0.00 0.00 0.00 0.00 0.00 0.00 0.00 0.00 0.00 0.00 0.00 0.00 0.00 0.00 0.00 0.00 0.00 0.00 0.00 0.00 0.01 0.01 0.01 0.02
0.00 0.00 0.00 0.00 0.00 0.01 0.01 0.01 0.01 0.00 0.00 0.00 0.00 0.00 0.00 0.00 0.00 0.00 0.00 0.00 0.00 0.00 0.00 0.00 0.00 0.00 0.00 0.00 0.00 0.00 0.00 0.00 0.00 0.00 0.00 0.00 0.00 0.00 0.00 0.00 0.00 0.00 0.00
0.00 0.00 0.00 0.00 0.00 0.00 0.00 0.01 0.00 0.00 0.00 0.00 0.00 0.00 0.00 0.00 0.00 0.00 0.00 0.00 0.00 0.00 0.00 0.00 0.00 0.00 0.00 0.00 0.00 0.00 0.00 0.00 0.00 0.00 0.00 0.00 0.00 0.00 0.00 0.00 0.00 0.00 0.00
0.00 0.00 0.00 0.00 0.00 0.00 0.00 0.00 0.00 0.00 0.00 0.00 0.00 0.00 0.00 0.00 0.00 0.00 0.00 0.00 0.00 0.00 0.00 0.00 0.00 0.00 0.00 0.00 0.00 0.00 0.00 0.00 0.00 0.00 0.00 0.00 0.00 0.00 0.00 0.00 0.00 0.00 0.00
0.00 0.00 0.00 0.00 0.00 0.00 0.00 0.00 0.00 0.00 0.00 0.00 0.00 0.00 0.00 0.00 0.00 0.00 0.00 0.00 0.00 0.00 0.00 0.00 0.00 0.00 0.00 0.00 0.00 0.00 0.00 0.00 0.00 0.00 0.00 0.00 0.00 0.00 0.00 0.00 0.00 0.00 0.00
0.00 0.00 0.00 0.00 0.00 0.00 0.00 0.00 0.00 0.00 0.01 0.00 0.00 0.00 0.00 0.00 0.00 0.00 0.00 0.00 0.00 0.00 0.00 0.00 0.00 0.00 0.00 0.00 0.00 0.00 0.00 0.00 0.00 0.00 0.00 0.00 0.00 0.00 0.00 0.00 0.00 0.00 0.00
0.00 0.00 0.00 0.00 0.00 0.00 0.00 0.00 0.00 0.01 0.01 0.01 0.00 0.00 0.00 0.00 0.00 0.00 0.00 0.00 0.00 0.00 0.00 0.00 0.00 0.00 0.00 0.00 0.00 0.00 0.00 0.00 0.00 0.00 0.00 0.00 0.00 0.00 0.00 0.00 0.00 0.00 0.00
0.00 0.00 0.00 0.00 0.00 0.00 0.00 0.01 0.01 0.01 0.02 0.02 0.01 0.01 0.00 0.00 0.00 0.00 0.00 0.00 0.00 0.00 0.00 0.00 0.00 0.00 0.00 0.00 0.00 0.00 0.00 0.00 0.00 0.00 0.00 0.00 0.00 0.00 0.00 0.00 0.00 0.00 0.00
0.00 0.00 0.00 0.00 0.00 0.00 0.00 0.00 0.02 0.03 0.04 0.03 0.02 0.02 0.01 0.00 0.00 0.00 0.00 0.00 0.00 0.00 0.00 0.00 0.00 0.00 0.00 0.00 0.00 0.00 0.00 0.00 0.00 0.00 0.00 0.00 0.00 0.00 0.00 0.00 0.00 0.00 0.00
0.00 0.00 0.00 0.00 0.00 0.00 0.00 0.00 0.01 0.04 0.06 0.06 0.05 0.03 0.02 0.01 0.00 0.00 0.00 0.00 0.00 0.00 0.00 0.00 0.00 0.00 0.00 0.00 0.00 0.00 0.00 0.00 0.00 0.00 0.00 0.00 0.00 0.00 0.00 0.00 0.00 0.00 0.00
0.00 0.00 0.00 0.00 0.00 0.00 0.00 0.00 0.01 0.04 0.07 0.08 0.07 0.06 0.04 0.02 0.01 0.00 0.00 0.00 0.00 0.00 0.00 0.00 0.00 0.00 0.00 0.00 0.00 0.00 0.00 0.00 0.00 0.00 0.00 0.00 0.00 0.00 0.00 0.00 0.00 0.00 0.00
0.00 0.00 0.00 0.00 0.00 0.00 0.00 0.00 0.02 0.05 0.09 0.11 0.09 0.06 0.04 0.02 0.00 0.00 0.00 0.00 0.00 0.00 0.00 0.00 0.00 0.00 0.00 0.00 0.00 0.00 0.00 0.00 0.00 0.00 0.00 0.00 0.00 0.00 0.00 0.00 0.00 0.00 0.00
0.00 0.00 0.00 0.00 0.00 0.00 0.00 0.00 0.01 0.03 0.05 0.05 0.04 0.04 0.02 0.01 0.00 0.00 0.00 0.00 0.00 0.00 0.00 0.00 0.00 0.00 0.00 0.00 0.00 0.00 0.00 0.00 0.00 0.00 0.00 0.00 0.00 0.00 0.00 0.00 0.00 0.00 0.00
0.00 0.00 0.00 0.00 0.00 0.00 0.00 0.00 0.01 0.03 0.05 0.05 0.04 0.03 0.01 0.01 0.00 0.00 0.00 0.00 0.00 0.00 0.00 0.00 0.00 0.00 0.00 0.00 0.00 0.00 0.00 0.00 0.00 0.00 0.00 0.00 0.00 0.00 0.00 0.00 0.00 0.00 0.00
0.00 0.00 0.00 0.00 0.00 0.00 0.00 0.00 0.01 0.04 0.05 0.05 0.03 0.02 0.01 0.00 0.00 0.00 0.00 0.00 0.00 0.00 0.00 0.00 0.00 0.00 0.00 0.00 0.00 0.00 0.00 0.00 0.00 0.00 0.00 0.00 0.00 0.00 0.00 0.00 0.00 0.00 0.00
0.00 0.00 0.00 0.00 0.00 0.00 0.00 0.00 0.01 0.02 0.04 0.04 0.02 0.01 0.01 0.00 0.00 0.00 0.00 0.00 0.00 0.00 0.00 0.00 0.00 0.00 0.00 0.00 0.00 0.00 0.00 0.00 0.00 0.00 0.00 0.00 0.00 0.00 0.00 0.00 0.00 0.00 0.00
MSLP
1011.08 1011.22 1011.48 1011.82 1012.21 1012.58 1012.91 1013.16 1013.34 1013.46 1013.56 1013.68 1013.86 1014.10 1014.39 1014.69 1014.98 1015.20 1015.32 1015.34 1015.27 1015.16 1015.03 1014.94 1014.91 1014.95 1015.05 1015.18 1015.33 1015.45 1015.55 1015.61 1015.64 1015.65 1015.66 1015.67 1015.68 1015.68 1015.65 1015.58 1015.49 1015.38 1015.27
1010.99 1011.16 1011.45 1011.83 1012.25 1012.66 1013.01 1013.29 1013.48 1013.61 1013.72 1013.85 1014.03 1014.27 1014.56 1014.88 1015.17 1015.39 1015.52 1015.56 1015.50 1015.40 1015.29 1015.21 1015.19 1015.23 1015.33 1015.45 1015.57 1015.67 1015.74 1015.77 1015.77 1015.77 1015.77 1015.77 1015.78 1015.77 1015.73 1015.66 1015.55 1015.41 1015.28
1010.86 1011.08 1011.41 1011.83 1012.29 1012.74 1013.12 1013.43 1013.64 1013.78 1013.90 1014.02 1014.19 1014.43 1014.71 1015.02 1015.31 1015.54 1015.69 1015.74 1015.71 1015.64 1015.56 1015.50 1015.50 1015.55 1015.63 1015.74 1015.83 1015.89 1015.91 1015.90 1015.87 1015.84 1015.82 1015.81 1015.81 1015.80 1015.76 1015.69 1015.57 1015.43 1015.29
1010.72 1010.99 1011.38 1011.85 1012.35 1012.83 1013.25 1013.58 1013.81 1013.96 1014.07 1014.18 1014.34 1014.55 1014.82 1015.11 1015.40 1015.63 1015.79 1015.87 1015.88 1015.84 1015.80 1015.78 1015.80 1015.85 1015.93 1016.01 1016.07 1016.08 1016.06 1016.00 1015.93 1015.86 1015.81 1015.79 1015.78 1015.77 1015.73 1015.66 1015.56 1015.42 1015.27
1010.61 1010.94 1011.37 1011.88 1012.43 1012.94 1013.39 1013.74 1013.98 1014.13 1014.23 1014.33 1014.47 1014.66 1014.90 1015.17 1015.44 1015.68 1015.85 1015.96 1016.00 1016.01 1016.01 1016.02 1016.06 1016.12 1016.19 1016.25 1016.26 1016.24 1016.16 1016.05 1015.94 1015.83 1015.76 1015.71 1015.69 1015.67 1015.64 1015.58 1015.49 1015.36 1015.22
1010.57 1010.94 1011.41 1011.96 1012.53 1013.07 1013.53 1013.89 1014.13 1014.29 1014.38 1014.46 1014.58 1014.74 1014.95 1015.20 1015.46 1015.69 1015.87 1016.00 1016.08 1016.12 1016.15 1016.20 1016.25 1016.32 1016.38 1016.41 1016.40 1016.33 1016.21 1016.06 1015.91 1015.77 1015.66 1015.59 1015.56 1015.53 1015.50 1015.45 1015.36 1015.25 1015.12
1010.61 1011.00 1011.49 1012.06 1012.64 1013.19 1013.66 1014.02 1014.27 1014.42 1014.51 1014.58 1014.67 1014.81 1015.00 1015.23 1015.47 1015.70 1015.88 1016.02 1016.12 1016.19 1016.25 1016.31 1016.38 1016.44 1016.48 1016.49 1016.45 1016.35 1016.20 1016.03 1015.85 1015.68 1015.55 1015.47 1015.41 1015.37 1015.34 1015.28 1015.20 1015.10 1014.98
1010.72 1011.12 1011.61 1012.17 1012.74 1013.28 1013.74 1014.10 1014.35 1014.51 1014.60 1014.67 1014.76 1014.89 1015.06 1015.28 1015.50 1015.72 1015.90 1016.05 1016.15 1016.24 1016.31 1016.37 1016.43 1016.49 1016.52 1016.51 1016.44 1016.32 1016.16 1015.97 1015.78 1015.60 1015.46 1015.36 1015.29 1015.24 1015.19 1015.12 1015.04 1014.94 1014.82
1010.88 1011.26 1011.73 1012.26 1012.80 1013.32 1013.76 1014.11 1014.37 1014.53 1014.64 1014.73 1014.83 1014.97 1015.14 1015.34 1015.56 1015.76 1015.94 1016.08 1016.19 1016.27 1016.34 1016.40 1016.46 1016.50 1016.51 1016.48 1016.40 1016.27 1016.10 1015.92 1015.73 1015.56 1015.42 1015.32 1015.24 1015.17 1015.10 1015.02 1014.93 1014.81 1014.69
1011.03 1011.37 1011.80 1012.29 1012.79 1013.27 1013.69 1014.04 1014.29 1014.48 1014.62 1014.73 1014.87 1015.02 1015.21 1015.42 1015.63 1015.82 1015.99 1016.13 1016.23 1016.31 1016.38 1016.43 1016.47 1016.49 1016.49 1016.44 1016.35 1016.22 1016.06 1015.89 1015.73 1015.58 1015.46 1015.37 1015.29 1015.21 1015.13 1015.03 1014.91 1014.78 1014.64
1011.12 1011.41 1011.79 1012.22 1012.68 1013.12 1013.51 1013.85 1014.12 1014.33 1014.50 1014.67 1014.84 1015.03 1015.24 1015.46 1015.68 1015.87 1016.04 1016.17 1016.28 1016.36 1016.42 1016.47 1016.50 1016.51 1016.49 1016.43 1016.34 1016.21 1016.07 1015.93 1015.79 1015.68 1015.60 1015.53 1015.46 1015.39 1015.29 1015.17 1015.02 1014.86 1014.71
1011.09 1011.34 1011.67 1012.05 1012.46 1012.85 1013.22 1013.55 1013.83 1014.07 1014.29 1014.51 1014.73 1014.96 1015.20 1015.45 1015.68 1015.88 1016.06 1016.20 1016.32 1016.41 1016.48 1016.54 1016.57 1016.58 1016.55 1016.48 1016.38 1016.26 1016.14 1016.02 1015.93 1015.87 1015.83 1015.80 1015.76 1015.70 1015.60 1015.46 1015.29 1015.10 1014.91
1010.92 1011.14 1011.43 1011.76 1012.12 1012.48 1012.83 1013.15 1013.44 1013.71 1013.98 1014.24 1014.51 1014.79 1015.07 1015.35 1015.60 1015.83 1016.03 1016.20 1016.34 1016.46 1016.56 1016.63 1016.68 1016.69 1016.66 1016.59 1016.49 1016.38 1016.27 1016.18 1016.12 1016.11 1016.12 1016.14 1016.15 1016.11 1016.02 1015.88 1015.69 1015.48 1015.26
1010.61 1010.81 1011.07 1011.37 1011.69 1012.02 1012.35 1012.66 1012.97 1013.27 1013.57 1013.88 1014.20 1014.53 1014.85 1015.17 1015.46 1015.72 1015.96 1016.16 1016.35 1016.51 1016.64 1016.75 1016.82 1016.85 1016.82 1016.75 1016.65 1016.54 1016.44 1016.37 1016.35 1016.38 1016.45 1016.53 1016.58 1016.59 1016.53 1016.39 1016.19 1015.95 1015.70
1010.19 1010.38 1010.62 1010.90 1011.20 1011.51 1011.82 1012.13 1012.45 1012.77 1013.10 1013.46 1013.82 1014.20 1014.57 1014.93 1015.27 1015.58 1015.86 1016.12 1016.36 1016.57 1016.75 1016.90 1017.00 1017.04 1017.02 1016.95 1016.84 1016.72 1016.62 1016.57 1016.58 1016.65 1016.76 1016.89 1017.01 1017.06 1017.04 1016.92 1016.73 1016.47 1016.18
1009.68 1009.87 1010.11 1010.38 1010.67 1010.98 1011.28 1011.60 1011.92 1012.27 1012.63 1013.02 1013.44 1013.86 1014.28 1014.69 1015.08 1015.45 1015.79 1016.10 1016.40 1016.66 1016.89 1017.07 1017.20 1017.26 1017.24 1017.16 1017.04 1016.91 1016.81 1016.75 1016.77 1016.87 1017.02 1017.20 1017.36 1017.47 1017.49 1017.40 1017.22 1016.95 1016.64
1009.12 1009.32 1009.57 1009.85 1010.15 1010.46 1010.78 1011.11 1011.45 1011.82 1012.22 1012.65 1013.10 1013.57 1014.05 1014.52 1014.97 1015.39 1015.79 1016.15 1016.49 1016.80 1017.06 1017.27 1017.42 1017.48 1017.46 1017.38 1017.24 1017.10 1016.97 1016.91 1016.92 1017.03 1017.20 1017.40 1017.60 1017.75 1017.81 1017.76 1017.60 1017.34 1017.01
1008.56 1008.76 1009.02 1009.32 1009.64 1009.98 1010.32 1010.68 1011.06 1011.46 1011.90 1012.37 1012.88 1013.40 1013.94 1014.46 1014.97 1015.44 1015.89 1016.29 1016.66 1016.99 1017.28 1017.50 1017.64 1017.70 1017.68 1017.58 1017.43 1017.26 1017.12 1017.04 1017.03 1017.12 1017.29 1017.50 1017.72 1017.90 1017.99 1017.97 1017.83 1017.58 1017.26
1008.00 1008.21 1008.49 1008.81 1009.17 1009.55 1009.94 1010.34 1010.77 1011.22 1011.71 1012.24 1012.80 1013.38 1013.97 1014.55 1015.10 1015.62 1016.10 1016.53 1016.91 1017.25 1017.52 1017.73 1017.87 1017.92 1017.88 1017.77 1017.61 1017.43 1017.27 1017.15 1017.12 1017.17 1017.31 1017.50 1017.71 1017.89 1018.00 1018.01 1017.90 1017.67 1017.36
1007.43 1007.65 1007.95 1008.31 1008.72 1009.15 1009.61 1010.09 1010.58 1011.10 1011.66 1012.25 1012.86 1013.50 1014.14 1014.77 1015.37 1015.92 1016.41 1016.85 1017.22 1017.54 1017.79 1017.98 1018.09 1018.12 1018.08 1017.97 1017.80 1017.61 1017.43 1017.29 1017.21 1017.22 1017.30 1017.44 1017.61 1017.77 1017.88 1017.89 1017.81 1017.61 1017.32
1006.85 1007.07 1007.39 1007.80 1008.27 1008.79 1009.33 1009.90 1010.48 1011.09 1011.72 1012.37 1013.05 1013.74 1014.43 1015.09 1015.71 1016.28 1016.77 1017.19 1017.54 1017.83 1018.05 1018.21 1018.30 1018.32 1018.28 1018.17 1018.02 1017.83 1017.64 1017.47 1017.34 1017.29 1017.30 1017.36 1017.47 1017.57 1017.65 1017.66 1017.59 1017.43 1017.18
1006.22 1006.45 1006.80 1007.26 1007.81 1008.42 1009.07 1009.75 1010.44 1011.14 1011.85 1012.57 1013.31 1014.04 1014.76 1015.44 1016.08 1016.64 1017.12 1017.52 1017.84 1018.09 1018.28 1018.41 1018.49 1018.52 1018.49 1018.41 1018.28 1018.11 1017.91 1017.72 1017.55 1017.41 1017.33 1017.30 1017.31 1017.34 1017.37 1017.36 1017.30 1017.16 1016.95
1005.55 1005.79 1006.18 1006.70 1007.33 1008.04 1008.81 1009.60 1010.41 1011.20 1012.00 1012.79 1013.57 1014.33 1015.07 1015.76 1016.39 1016.95 1017.41 1017.79 1018.08 1018.31 1018.47 1018.59 1018.68 1018.72 1018.72 1018.68 1018.58 1018.44 1018.26 1018.05 1017.82 1017.61 1017.43 1017.29 1017.19 1017.12 1017.07 1017.03 1016.95 1016.84 1016.67
1004.84 1005.10 1005.52 1006.11 1006.83 1007.65 1008.53 1009.44 1010.36 1011.25 1012.13 1012.97 1013.78 1014.57 1015.31 1015.99 1016.61 1017.15 1017.60 1017.96 1018.24 1018.45 1018.62 1018.74 1018.85 1018.92 1018.97 1018.98 1018.93 1018.83 1018.66 1018.43 1018.16 1017.88 1017.59 1017.33 1017.11 1016.94 1016.80 1016.69 1016.59 1016.49 1016.35
1004.13 1004.42 1004.88 1005.52 1006.33 1007.25 1008.24 1009.26 1010.28 1011.26 1012.20 1013.09 1013.92 1014.71 1015.45 1016.12 1016.73 1017.26 1017.69 1018.05 1018.33 1018.55 1018.73 1018.88 1019.01 1019.13 1019.23 1019.29 1019.29 1019.22 1019.07 1018.84 1018.53 1018.18 1017.80 1017.43 1017.09 1016.79 1016.56 1016.38 1016.24 1016.12 1015.98
1003.48 1003.79 1004.29 1004.99 1005.86 1006.87 1007.96 1009.07 1010.17 1011.23 1012.21 1013.13 1013.98 1014.77 1015.49 1016.16 1016.75 1017.28 1017.72 1018.08 1018.38 1018.62 1018.82 1019.00 1019.17 1019.33 1019.47 1019.58 1019.62 1019.58 1019.45 1019.21 1018.88 1018.47 1018.01 1017.54 1017.09 1016.69 1016.36 1016.09 1015.89 1015.73 1015.59
Thickness
5761 5760 5753 5751 5749 5747 5745 5744 5742 5739 5738 5736 5733 5731 5729 5726 5724 5722 5721 5721 5721 5721 5722 5723 5724 5724 5723 5722 5720 5719 5717 5716 5715 5715 5714 5715 5715 5716 5716 5716 5716 5718 5715
5762 5757 5749 5747 5745 5743 5741 5739 5738 5735 5734 5732 5730 5727 5725 5723 5720 5719 5718 5717 5717 5717 5718 5718 5718 5718 5717 5716 5715 5714 5713 5712 5711 5710 5710 5711 5711 5711 5712 5712 5712 5714 5711
5757 5753 5746 5742 5740 5738 5736 5734 5733 5732 5730 5728 5726 5724 5721 5719 5717 5715 5714 5713 5713 5712 5712 5712 5712 5711 5710 5709 5709 5708 5708 5708 5707 5706 5707 5710 5710 5707 5707 5708 5707 5707 5707
5753 5749 5744 5738 5735 5733 5731 5729 5728 5727 5726 5725 5723 5720 5718 5715 5713 5712 5710 5709 5708 5708 5707 5707 5706 5705 5704 5704 5704 5704 5703 5703 5702 5703 5707 5707 5706 5704 5703 5703 5703 5703 5703
5748 5745 5739 5733 5730 5728 5726 5724 5723 5722 5722 5720 5718 5716 5714 5712 5710 5708 5706 5705 5704 5703 5702 5702 5701 5700 5700 5699 5699 5699 5699 5699 5699 5700 5702 5702 5701 5699 5698 5699 5699 5699 5699
5744 5740 5734 5729 5726 5723 5721 5719 5718 5717 5717 5716 5714 5712 5710 5708 5706 5705 5703 5701 5700 5699 5698 5698 5697 5696 5696 5696 5696 5696 5696 5695 5695 5699 5698 5697 5697 5694 5693 5694 5694 5694 5694
5740 5736 5730 5724 5721 5718 5716 5715 5713 5712 5712 5711 5709 5708 5706 5704 5702 5701 5699 5697 5696 5694 5694 5694 5693 5693 5692 5692 5692 5692 5692 5691 5693 5694 5693 5693 5691 5688 5689 5689 5689 5689 5689
5735 5731 5726 5720 5717 5714 5712 5710 5709 5707 5706 5705 5704 5703 5701 5700 5699 5698 5696 5694 5692 5691 5690 5690 5690 5689 5689 5689 5688 5688 5687 5686 5689 5690 5689 5688 5684 5683 5684 5684 5684 5684 5684
5730 5727 5723 5718 5713 5710 5708 5706 5705 5703 5701 5700 5699 5698 5697 5696 5695 5694 5693 5690 5688 5687 5687 5686 5686 5685 5685 5684 5683 5683 5682 5682 5684 5685 5683 5682 5679 5679 5679 5679 5679 5679 5679
5724 5722 5720 5716 5712 5708 5705 5702 5700 5698 5696 5695 5694 5693 5692 5691 5690 5690 5688 5686 5685 5684 5683 5682 5682 5681 5680 5679 5678 5677 5677 5677 5680 5679 5678 5676 5673 5673 5674 5673 5673 5672 5673
5716 5717 5716 5714 5710 5706 5703 5699 5697 5694 5692 5690 5689 5688 5687 5689 5688 5686 5683 5682 5681 5680 5679 5678 5676 5675 5674 5673 5672 5671 5671 5673 5673 5672 5670 5667 5667 5667 5667 5666 5665 5665 5665
5712 5712 5713 5711 5708 5704 5701 5697 5695 5693 5690 5689 5689 5686 5686 5685 5684 5682 5678 5677 5676 5675 5674 5672 5671 5670 5670 5670 5667 5665 5666 5665 5665 5664 5662 5659 5659 5659 5659 5657 5656 5656 5655
5712 5710 5709 5708 5705 5702 5699 5697 5695 5692 5690 5687 5686 5684 5682 5681 5679 5678 5677 5674 5673 5671 5671 5668 5667 5666 5664 5661 5660 5659 5657 5657 5656 5655 5653 5651 5651 5651 5649 5647 5646 5645 5645
5709 5707 5706 5705 5702 5700 5698 5696 5694 5691 5689 5686 5682 5680 5679 5677 5676 5675 5673 5671 5670 5668 5665 5663 5661 5659 5656 5655 5653 5652 5650 5649 5648 5646 5642 5641 5641 5640 5639 5637 5635 5634 5633
5705 5705 5704 5702 5700 5698 5695 5694 5692 5690 5688 5684 5680 5677 5675 5674 5673 5670 5668 5664 5663 5660 5658 5655 5654 5652 5650 5647 5646 5644 5643 5642 5640 5638 5634 5630 5630 5629 5627 5625 5624 5622 5621
5703 5702 5702 5700 5698 5696 5694 5692 5691 5689 5686 5683 5678 5674 5671 5670 5668 5664 5661 5657 5654 5652 5650 5648 5646 5644 5642 5640 5638 5636 5635 5634 5632 5630 5626 5621 5618 5617 5615 5613 5611 5610 5609
5701 5700 5699 5697 5696 5694 5692 5690 5689 5687 5685 5681 5676 5672 5668 5665 5661 5658 5654 5650 5646 5644 5641 5639 5637 5635 5633 5632 5632 5629 5628 5626 5624 5621 5617 5613 5609 5605 5603 5600 5599 5598 5598
5697 5696 5696 5693 5693 5691 5689 5687 5686 5685 5683 5678 5673 5668 5663 5659 5655 5651 5646 5642 5639 5635 5633 5631 5629 5627 5626 5625 5625 5623 5621 5617 5616 5612 5607 5603 5599 5596 5593 5589 5587 5587 5587
5693 5694 5692 5691 5690 5689 5685 5682 5681 5680 5678 5674 5668 5663 5657 5652 5648 5644 5639 5635 5631 5627 5625 5622 5620 5619 5617 5615 5615 5614 5612 5610 5607 5602 5598 5593 5588 5585 5582 5580 5577 5577 5576
5689 5689 5689 5688 5687 5685 5680 5676 5674 5672 5670 5666 5661 5656 5650 5645 5640 5636 5631 5627 5623 5619 5616 5614 5610 5607 5605 5604 5605 5605 5602 5599 5596 5592 5588 5583 5578 5574 5571 5569 5568 5568 5566
5683 5684 5685 5685 5684 5680 5675 5670 5665 5662 5659 5654 5650 5646 5641 5636 5632 5628 5623 5618 5614 5611 5608 5607 5603 5600 5596 5594 5597 5598 5595 5590 5586 5582 5577 5574 5569 5564 5561 5558 5556 5555 5555
5680 5681 5681 5681 5680 5676 5672 5667 5661 5654 5647 5642 5638 5634 5631 5627 5624 5619 5615 5610 5605 5602 5599 5596 5593 5590 5585 5581 5583 5586 5588 5587 5578 5572 5567 5563 5559 5555 5551 5546 5543 5541 5540
5676 5677 5676 5677 5674 5671 5666 5659 5651 5642 5635 5629 5626 5623 5619 5617 5614 5610 5605 5602 5597 5594 5589 5585 5582 5580 5577 5571 5568 5570 5572 5575 5569 5566 5559 5553 5547 5543 5537 5532 5529 5526 5524
5673 5673 5672 5671 5668 5665 5660 5655 5651 5646 5636 5628 5621 5615 5610 5606 5603 5599 5596 5592 5588 5584 5579 5575 5570 5567 5564 5561 5556 5551 5550 5548 5548 5554 5554 5546 5539 5531 5525 5521 5516 5513 5511
5667 5665 5665 5664 5662 5658 5655 5651 5648 5642 5632 5620 5611 5606 5601 5596 5592 5589 5586 5582 5578 5573 5568 5563 5559 5555 5551 5548 5545 5541 5538 5533 5530 5529 5537 5536 5530 5523 5517 5510 5505 5502 5498
5659 5657 5656 5657 5655 5652 5649 5646 5644 5635 5624 5613 5605 5598 5592 5587 5582 5579 5576 5572 5568 5563 5558 5552 5548 5543 5539 5534 5530 5527 5524 5522 5521 5515 5516 5518 5516 5513 5506 5501 5494 5489 5483